| time (UTC) | temp F | wind direction | speed knots | gust knots | rain 1hr in | rain 24hr in | rain mn in | humidity % | barometer mb |
| 20260508004505 | 46 | 5 | 0.0 | 0.9 | 0.00 | 0.00 | 0.00 | 87 | 1016.5 |
| 20260508003605 | 46 | 0 | 0.0 | 0.0 | 0.00 | 0.00 | 0.00 | 87 | 1016.5 |
| 20260508002704 | 47 | 5 | 0.0 | 0.9 | 0.00 | 0.00 | 0.00 | 87 | 1016.5 |
| 20260508001803 | 47 | 30 | 0.0 | 0.9 | 0.00 | 0.00 | 0.00 | 86 | 1016.5 |
| 20260508000905 | 48 | 111 | 0.0 | 0.9 | 0.00 | 0.00 | 0.00 | 86 | 1016.6 |
| 20260508000005 | 48 | 0 | 0.0 | 0.0 | 0.00 | 0.00 | 0.00 | 86 | 1016.7 |
| 20260507235405 | 48 | 0 | 0.0 | 0.0 | 0.00 | 0.00 | 0.00 | 85 | 1016.6 |
| 20260507234505 | 49 | 0 | 0.0 | 0.0 | 0.00 | 0.00 | 0.00 | 85 | 1016.7 |
| 20260507233603 | 49 | 0 | 0.0 | 0.0 | 0.00 | 0.00 | 0.00 | 85 | 1016.8 |
| 20260507232703 | 49 | 0 | 0.0 | 0.0 | 0.00 | 0.00 | 0.00 | 84 | 1016.8 |
| 20260507231806 | 50 | 0 | 0.0 | 0.0 | 0.00 | 0.00 | 0.00 | 83 | 1016.7 |
| 20260507230904 | 50 | 0 | 0.0 | 0.0 | 0.00 | 0.00 | 0.00 | 82 | 1016.7 |
| 20260507230006 | 51 | 0 | 0.0 | 0.0 | 0.00 | 0.00 | 0.00 | 81 | 1016.5 |
| 20260507225404 | 51 | 0 | 0.0 | 0.0 | 0.00 | 0.00 | 0.00 | 81 | 1016.7 |
| 20260507224505 | 51 | 0 | 0.0 | 0.0 | 0.00 | 0.00 | 0.00 | 80 | 1016.7 |
| 20260507223605 | 52 | 111 | 0.0 | 0.9 | 0.00 | 0.00 | 0.00 | 79 | 1016.7 |
| 20260507222916 | 52 | 111 | 0.0 | 0.9 | 0.00 | 0.00 | 0.00 | 79 | 1016.7 |
| 20260507222018 | 52 | 111 | 0.0 | 4.3 | 0.00 | 0.00 | 0.00 | 78 | 1016.8 |
| 20260507221117 | 52 | 144 | 0.9 | 4.3 | 0.00 | 0.00 | 0.00 | 77 | 1016.8 |
| 20260507220219 | 53 | 134 | 0.0 | 4.3 | 0.00 | 0.00 | 0.00 | 76 | 1016.9 |
| 20260507215406 | 53 | 144 | 0.9 | 4.3 | 0.00 | 0.00 | 0.00 | 76 | 1016.8 |
| 20260507214503 | 53 | 139 | 0.0 | 2.6 | 0.00 | 0.00 | 0.00 | 75 | 1016.8 |
| 20260507213603 | 53 | 138 | 0.0 | 2.6 | 0.00 | 0.00 | 0.00 | 74 | 1016.9 |
| 20260507212705 | 53 | 163 | 0.0 | 2.6 | 0.00 | 0.00 | 0.00 | 74 | 1016.8 |
| 20260507211805 | 53 | 0 | 0.0 | 0.0 | 0.00 | 0.00 | 0.00 | 73 | 1016.8 |
| 20260507211117 | 53 | 0 | 0.0 | 0.0 | 0.00 | 0.00 | 0.00 | 73 | 1016.8 |
| 20260507210218 | 54 | 216 | 0.0 | 0.9 | 0.00 | 0.00 | 0.00 | 72 | 1016.6 |
| 20260507205404 | 54 | 216 | 0.0 | 0.9 | 0.00 | 0.00 | 0.00 | 72 | 1016.6 |
| 20260507204719 | 54 | 216 | 0.0 | 0.9 | 0.00 | 0.00 | 0.00 | 71 | 1016.6 |
| 20260507203605 | 54 | 218 | 0.0 | 2.6 | 0.00 | 0.00 | 0.00 | 71 | 1016.5 |
| 20260507202705 | 54 | 201 | 0.0 | 1.7 | 0.00 | 0.00 | 0.00 | 71 | 1016.4 |
| 20260507201805 | 55 | 201 | 0.0 | 0.9 | 0.00 | 0.00 | 0.00 | 71 | 1016.3 |
| 20260507200905 | 55 | 151 | 0.0 | 1.7 | 0.00 | 0.00 | 0.00 | 70 | 1016.2 |
| 20260507200003 | 55 | 140 | 0.0 | 2.6 | 0.00 | 0.00 | 0.00 | 70 | 1016.0 |
| 20260507195405 | 55 | 138 | 0.9 | 3.5 | 0.00 | 0.00 | 0.00 | 69 | 1015.9 |
| 20260507194503 | 55 | 137 | 0.9 | 2.6 | 0.00 | 0.00 | 0.00 | 70 | 1015.8 |
| 20260507193604 | 55 | 142 | 0.9 | 4.3 | 0.00 | 0.00 | 0.00 | 69 | 1015.7 |
| 20260507192705 | 55 | 131 | 1.7 | 6.1 | 0.00 | 0.00 | 0.00 | 69 | 1015.6 |
| 20260507191803 | 56 | 140 | 0.9 | 4.3 | 0.00 | 0.00 | 0.00 | 69 | 1015.6 |
| 20260507190905 | 56 | 134 | 1.7 | 7.0 | 0.00 | 0.00 | 0.00 | 69 | 1015.5 |
| 20260507190005 | 56 | 137 | 2.6 | 9.6 | 0.00 | 0.00 | 0.00 | 67 | 1015.4 |
| 20260507185405 | 56 | 128 | 3.5 | 9.6 | 0.00 | 0.00 | 0.00 | 66 | 1015.4 |
| 20260507184719 | 57 | 132 | 1.7 | 7.0 | 0.00 | 0.00 | 0.00 | 65 | 1015.4 |
| 20260507183604 | 57 | 157 | 0.9 | 4.3 | 0.00 | 0.00 | 0.00 | 62 | 1015.3 |
| 20260507182704 | 57 | 156 | 1.7 | 3.5 | 0.00 | 0.00 | 0.00 | 61 | 1015.3 |
| 20260507181803 | 57 | 117 | 0.0 | 3.5 | 0.00 | 0.00 | 0.00 | 62 | 1015.2 |
| 20260507180905 | 57 | 133 | 0.9 | 3.5 | 0.00 | 0.00 | 0.00 | 61 | 1015.2 |
| 20260507180005 | 57 | 157 | 0.9 | 5.2 | 0.00 | 0.00 | 0.00 | 62 | 1015.1 |
| 20260507175408 | 57 | 166 | 0.9 | 5.2 | 0.00 | 0.00 | 0.00 | 62 | 1015.1 |
| 20260507174504 | 57 | 145 | 0.9 | 5.2 | 0.00 | 0.00 | 0.00 | 62 | 1015.0 |
| 20260507173603 | 57 | 141 | 0.9 | 3.5 | 0.00 | 0.00 | 0.00 | 62 | 1015.0 |
| 20260507172705 | 58 | 144 | 0.9 | 3.5 | 0.00 | 0.00 | 0.00 | 61 | 1015.0 |
| 20260507171803 | 58 | 150 | 0.9 | 6.1 | 0.00 | 0.00 | 0.00 | 61 | 1014.9 |
| 20260507170903 | 58 | 144 | 1.7 | 6.1 | 0.00 | 0.00 | 0.00 | 58 | 1015.0 |
| 20260507170219 | 59 | 126 | 2.6 | 7.0 | 0.00 | 0.00 | 0.00 | 53 | 1015.0 |
| 20260507165405 | 59 | 118 | 1.7 | 7.0 | 0.00 | 0.00 | 0.00 | 54 | 1014.9 |
| 20260507164504 | 59 | 125 | 2.6 | 7.0 | 0.00 | 0.00 | 0.00 | 54 | 1015.0 |
| 20260507163603 | 59 | 126 | 2.6 | 7.8 | 0.00 | 0.00 | 0.00 | 53 | 1014.9 |
| 20260507162705 | 59 | 133 | 1.7 | 6.1 | 0.00 | 0.00 | 0.00 | 51 | 1015.0 |
| 20260507162018 | 59 | 128 | 1.7 | 6.1 | 0.00 | 0.00 | 0.00 | 52 | 1015.0 |
| 20260507160905 | 59 | 139 | 3.5 | 7.8 | 0.00 | 0.00 | 0.00 | 52 | 1014.9 |
| 20260507160003 | 60 | 88 | 1.7 | 6.1 | 0.00 | 0.00 | 0.00 | 51 | 1015.0 |
| 20260507155404 | 60 | 118 | 1.7 | 7.0 | 0.00 | 0.00 | 0.00 | 50 | 1015.0 |
| 20260507154505 | 60 | 117 | 0.9 | 4.3 | 0.00 | 0.00 | 0.00 | 49 | 1015.0 |
| 20260507153603 | 60 | 115 | 1.7 | 7.0 | 0.00 | 0.00 | 0.00 | 50 | 1015.1 |
| 20260507152918 | 61 | 109 | 2.6 | 7.8 | 0.00 | 0.00 | 0.00 | 48 | 1015.0 |
| 20260507151803 | 62 | 352 | 0.0 | 2.6 | 0.00 | 0.00 | 0.00 | 47 | 1015.0 |
| 20260507150908 | 62 | 351 | 0.0 | 0.9 | 0.00 | 0.00 | 0.00 | 43 | 1015.1 |
| 20260507150003 | 62 | 3 | 0.0 | 1.7 | 0.00 | 0.00 | 0.00 | 45 | 1015.1 |
| 20260507145405 | 61 | 55 | 0.0 | 1.7 | 0.00 | 0.00 | 0.00 | 46 | 1015.1 |
| 20260507144505 | 61 | 148 | 0.9 | 3.5 | 0.00 | 0.00 | 0.00 | 45 | 1015.2 |
| 20260507143604 | 61 | 122 | 0.9 | 3.5 | 0.00 | 0.00 | 0.00 | 45 | 1015.2 |
| 20260507142703 | 62 | 91 | 0.9 | 5.2 | 0.00 | 0.00 | 0.00 | 44 | 1015.2 |
| 20260507141805 | 62 | 99 | 0.0 | 1.7 | 0.00 | 0.00 | 0.00 | 46 | 1015.3 |
| 20260507140905 | 62 | 52 | 0.0 | 2.6 | 0.00 | 0.00 | 0.00 | 45 | 1015.3 |
| 20260507140005 | 61 | 340 | 0.9 | 3.5 | 0.00 | 0.00 | 0.00 | 47 | 1015.4 |
| 20260507135403 | 61 | 344 | 0.9 | 4.3 | 0.00 | 0.00 | 0.00 | 46 | 1015.4 |
| 20260507134505 | 61 | 159 | 1.7 | 5.2 | 0.00 | 0.00 | 0.00 | 46 | 1015.5 |
| 20260507133605 | 61 | 125 | 0.9 | 5.2 | 0.00 | 0.00 | 0.00 | 44 | 1015.5 |
| 20260507132703 | 61 | 168 | 0.0 | 2.6 | 0.00 | 0.00 | 0.00 | 48 | 1015.6 |
| 20260507131803 | 61 | 149 | 1.7 | 6.1 | 0.00 | 0.00 | 0.00 | 46 | 1015.6 |
| 20260507130905 | 62 | 150 | 0.9 | 4.3 | 0.00 | 0.00 | 0.00 | 47 | 1015.6 |
| 20260507130003 | 61 | 22 | 0.0 | 1.7 | 0.00 | 0.00 | 0.00 | 48 | 1015.7 |
| 20260507125405 | 60 | 14 | 0.9 | 3.5 | 0.00 | 0.00 | 0.00 | 49 | 1015.7 |
| 20260507124505 | 60 | 23 | 0.9 | 3.5 | 0.00 | 0.00 | 0.00 | 48 | 1015.8 |
| 20260507123604 | 60 | 32 | 0.9 | 2.6 | 0.00 | 0.00 | 0.00 | 50 | 1015.8 |
| 20260507122706 | 58 | 144 | 0.9 | 3.5 | 0.00 | 0.00 | 0.00 | 51 | 1015.9 |
| 20260507121805 | 58 | 127 | 0.0 | 1.7 | 0.00 | 0.00 | 0.00 | 50 | 1015.9 |
| 20260507120904 | 59 | 130 | 0.0 | 2.6 | 0.00 | 0.00 | 0.00 | 49 | 1015.9 |
| 20260507120005 | 61 | 43 | 0.9 | 3.5 | 0.00 | 0.00 | 0.00 | 48 | 1015.9 |
| 20260507115405 | 61 | 9 | 0.9 | 3.5 | 0.00 | 0.00 | 0.00 | 50 | 1015.9 |
| 20260507114504 | 59 | 166 | 0.9 | 2.6 | 0.00 | 0.00 | 0.00 | 52 | 1016.0 |
| 20260507113605 | 59 | 115 | 0.9 | 2.6 | 0.00 | 0.00 | 0.00 | 51 | 1016.0 |
| 20260507112705 | 60 | 91 | 0.9 | 6.1 | 0.00 | 0.00 | 0.00 | 51 | 1016.0 |
| 20260507111805 | 60 | 113 | 0.9 | 6.1 | 0.00 | 0.00 | 0.00 | 52 | 1016.1 |
| 20260507110903 | 60 | 45 | 0.9 | 3.5 | 0.00 | 0.00 | 0.00 | 52 | 1016.1 |
| 20260507110003 | 59 | 116 | 1.7 | 6.1 | 0.00 | 0.00 | 0.00 | 52 | 1016.2 |
| 20260507105618 | 58 | 112 | 2.6 | 6.1 | 0.00 | 0.00 | 0.00 | 54 | 1016.2 |
| 20260507104503 | 57 | 126 | 1.7 | 7.0 | 0.00 | 0.00 | 0.00 | 55 | 1016.3 |
| 20260507103819 | 57 | 138 | 1.7 | 5.2 | 0.00 | 0.00 | 0.00 | 55 | 1016.2 |
| 20260507102918 | 58 | 82 | 0.9 | 3.5 | 0.00 | 0.00 | 0.00 | 56 | 1016.4 |
| 20260507101806 | 58 | 126 | 1.7 | 5.2 | 0.00 | 0.00 | 0.00 | 58 | 1016.4 |
| 20260507100905 | 57 | 145 | 0.9 | 6.1 | 0.00 | 0.00 | 0.00 | 60 | 1016.5 |
| 20260507100003 | 58 | 31 | 1.7 | 6.1 | 0.00 | 0.00 | 0.00 | 60 | 1016.5 |
| 20260507095404 | 58 | 21 | 0.9 | 6.1 | 0.00 | 0.00 | 0.00 | 60 | 1016.5 |
| 20260507094503 | 57 | 27 | 0.9 | 2.6 | 0.00 | 0.00 | 0.00 | 64 | 1016.4 |
| 20260507093605 | 55 | 115 | 0.9 | 4.3 | 0.00 | 0.00 | 0.00 | 68 | 1016.5 |
| 20260507092703 | 54 | 133 | 0.0 | 2.6 | 0.00 | 0.00 | 0.00 | 68 | 1016.5 |
| 20260507091803 | 54 | 307 | 0.0 | 2.6 | 0.00 | 0.00 | 0.00 | 68 | 1016.5 |
| 20260507090904 | 55 | 140 | 1.7 | 7.8 | 0.00 | 0.00 | 0.00 | 69 | 1016.5 |
| 20260507090005 | 55 | 126 | 1.7 | 7.0 | 0.00 | 0.00 | 0.00 | 72 | 1016.5 |
| 20260507085404 | 54 | 144 | 0.9 | 6.1 | 0.00 | 0.00 | 0.00 | 75 | 1016.5 |
| 20260507084503 | 53 | 124 | 1.7 | 6.1 | 0.00 | 0.00 | 0.00 | 76 | 1016.6 |
| 20260507083604 | 52 | 144 | 0.9 | 2.6 | 0.00 | 0.00 | 0.00 | 78 | 1016.6 |
| 20260507082917 | 53 | 178 | 0.9 | 5.2 | 0.00 | 0.00 | 0.00 | 77 | 1016.6 |
| 20260507081805 | 53 | 96 | 0.9 | 3.5 | 0.00 | 0.00 | 0.00 | 80 | 1016.6 |
| 20260507080903 | 52 | 111 | 2.6 | 6.1 | 0.00 | 0.00 | 0.00 | 80 | 1016.6 |
| 20260507080005 | 52 | 130 | 0.9 | 3.5 | 0.00 | 0.00 | 0.00 | 80 | 1016.6 |
| 20260507075405 | 52 | 122 | 0.9 | 6.1 | 0.00 | 0.00 | 0.00 | 81 | 1016.5 |
| 20260507074718 | 52 | 118 | 0.9 | 6.1 | 0.00 | 0.00 | 0.00 | 82 | 1016.5 |
| 20260507073603 | 52 | 116 | 0.0 | 2.6 | 0.00 | 0.00 | 0.00 | 83 | 1016.5 |
| 20260507072703 | 51 | 125 | 0.0 | 1.7 | 0.00 | 0.00 | 0.00 | 84 | 1016.4 |
| 20260507072018 | 50 | 125 | 0.0 | 1.7 | 0.00 | 0.00 | 0.00 | 85 | 1016.4 |
| 20260507070905 | 49 | 105 | 0.9 | 2.6 | 0.00 | 0.00 | 0.00 | 86 | 1016.5 |
| 20260507070009 | 49 | 21 | 0.0 | 1.7 | 0.00 | 0.00 | 0.00 | 88 | 1016.5 |
| 20260507065405 | 48 | 0 | 0.0 | 0.0 | 0.00 | 0.00 | 0.00 | 89 | 1016.5 |
| 20260507064505 | 47 | 0 | 0.0 | 0.0 | 0.00 | 0.00 | 0.00 | 91 | 1016.4 |
| 20260507063603 | 45 | 16 | 0.0 | 0.9 | 0.00 | 0.00 | 0.00 | 92 | 1016.5 |
| 20260507062705 | 44 | 16 | 0.0 | 1.7 | 0.00 | 0.00 | 0.00 | 92 | 1016.5 |
| 20260507061803 | 43 | 11 | 0.9 | 2.6 | 0.00 | 0.00 | 0.00 | 92 | 1016.4 |
| 20260507061117 | 43 | 10 | 0.0 | 1.7 | 0.00 | 0.00 | 0.00 | 92 | 1016.4 |
| 20260507060004 | 43 | 11 | 0.9 | 3.5 | 0.00 | 0.00 | 0.00 | 92 | 1016.3 |
| 20260507055403 | 43 | 13 | 0.0 | 1.7 | 0.00 | 0.00 | 0.00 | 93 | 1016.3 |
| 20260507054503 | 43 | 11 | 0.0 | 3.5 | 0.00 | 0.00 | 0.00 | 93 | 1016.2 |
| 20260507053605 | 42 | 7 | 0.0 | 2.6 | 0.00 | 0.00 | 0.00 | 93 | 1016.1 |
| 20260507052703 | 42 | 0 | 0.0 | 0.0 | 0.00 | 0.00 | 0.00 | 93 | 1016.1 |
| 20260507051804 | 42 | 9 | 0.0 | 0.9 | 0.00 | 0.00 | 0.00 | 93 | 1016.1 |
| 20260507051119 | 41 | 0 | 0.0 | 0.0 | 0.00 | 0.00 | 0.00 | 93 | 1016.0 |
| 20260507050005 | 41 | 0 | 0.0 | 0.0 | 0.00 | 0.00 | 0.00 | 92 | 1015.9 |
| 20260507045405 | 41 | 9 | 0.0 | 1.7 | 0.00 | 0.00 | 0.00 | 92 | 1015.9 |
| 20260507044719 | 40 | 9 | 0.9 | 2.6 | 0.00 | 0.00 | 0.00 | 92 | 1015.8 |
| 20260507043603 | 40 | 3 | 0.9 | 2.6 | 0.00 | 0.00 | 0.00 | 92 | 1015.8 |
| 20260507042705 | 40 | 9 | 0.9 | 3.5 | 0.00 | 0.00 | 0.00 | 92 | 1015.8 |
| 20260507041803 | 40 | 360 | 0.9 | 2.6 | 0.00 | 0.00 | 0.00 | 92 | 1015.8 |
| 20260507041119 | 40 | 360 | 0.0 | 2.6 | 0.00 | 0.00 | 0.00 | 92 | 1015.9 |
| 20260507040003 | 40 | 359 | 0.9 | 2.6 | 0.00 | 0.00 | 0.00 | 91 | 1015.9 |
| 20260507035404 | 40 | 356 | 0.9 | 3.5 | 0.00 | 0.00 | 0.00 | 91 | 1015.8 |
| 20260507034508 | 41 | 355 | 0.0 | 2.6 | 0.00 | 0.00 | 0.00 | 91 | 1015.8 |
| 20260507033605 | 41 | 355 | 0.0 | 1.7 | 0.00 | 0.00 | 0.00 | 91 | 1015.8 |
| 20260507032705 | 42 | 3 | 0.0 | 2.6 | 0.00 | 0.00 | 0.00 | 91 | 1015.7 |
| 20260507031805 | 42 | 20 | 0.9 | 2.6 | 0.00 | 0.00 | 0.00 | 92 | 1015.7 |
| 20260507030905 | 42 | 20 | 0.9 | 2.6 | 0.00 | 0.00 | 0.00 | 92 | 1015.8 |
| 20260507030005 | 42 | 20 | 0.9 | 2.6 | 0.00 | 0.00 | 0.00 | 92 | 1015.8 |
| 20260507025619 | 42 | 18 | 0.9 | 2.6 | 0.00 | 0.00 | 0.00 | 92 | 1015.8 |
| 20260507024503 | 42 | 6 | 1.7 | 3.5 | 0.00 | 0.00 | 0.00 | 92 | 1015.7 |
| 20260507023818 | 42 | 8 | 0.9 | 3.5 | 0.00 | 0.00 | 0.00 | 92 | 1015.7 |
| 20260507022703 | 42 | 10 | 0.0 | 0.9 | 0.00 | 0.00 | 0.00 | 92 | 1015.8 |
| 20260507021805 | 41 | 12 | 0.9 | 2.6 | 0.00 | 0.00 | 0.00 | 92 | 1015.8 |
| 20260507020904 | 41 | 3 | 0.9 | 2.6 | 0.00 | 0.00 | 0.00 | 92 | 1015.8 |
| 20260507020004 | 41 | 5 | 0.9 | 2.6 | 0.00 | 0.00 | 0.00 | 91 | 1015.7 |
| 20260507015409 | 40 | 5 | 0.9 | 2.6 | 0.00 | 0.00 | 0.00 | 91 | 1015.7 |
| 20260507014503 | 40 | 5 | 0.0 | 2.6 | 0.00 | 0.00 | 0.00 | 91 | 1015.6 |
| 20260507013603 | 40 | 5 | 0.9 | 2.6 | 0.00 | 0.00 | 0.00 | 91 | 1015.6 |
| 20260507012706 | 41 | 5 | 0.9 | 2.6 | 0.00 | 0.00 | 0.00 | 91 | 1015.7 |
| 20260507011804 | 41 | 5 | 0.0 | 2.6 | 0.00 | 0.00 | 0.00 | 91 | 1015.7 |
| 20260507010903 | 41 | 5 | 0.0 | 1.7 | 0.00 | 0.00 | 0.00 | 90 | 1015.7 |
| 20260507010003 | 41 | 5 | 0.9 | 2.6 | 0.00 | 0.00 | 0.00 | 91 | 1015.6 |
| 20260507005616 | 41 | 4 | 0.9 | 2.6 | 0.00 | 0.00 | 0.00 | 91 | 1015.6 |